{"data":{"norad_id":59381,"intl_designator":"2024-062H","name":"STARLINK-31713","alt_names":[],"object_type":"PAYLOAD","status":"ACTIVE","operator":null,"country":"US","launch_date":"2024-04-02","launch_site_code":"AFWTR","launch_vehicle":null,"mission":null,"orbit_class":"UNKNOWN","rcs_meters":null,"size_class":null,"mass_kg":null,"dimensions":null,"purposes":["comms"],"wikipedia_slug":null,"has_3d_model":false,"image_url":null,"decayed_at":null,"tle_current":{"epoch":"2026-05-25T01:18:42.848640Z","epoch_age_seconds":70433,"freshness":"FRESH","line1":"1 59381U 24062H   26145.05466260  .00000140  00000+0  15269-4 0  9998","line2":"2 59381  53.1613 263.0614 0001117  88.1218 271.9912 15.34389104121291","mean_motion":15.34389104,"eccentricity":0.0001117,"inclination_deg":53.1613,"raan_deg":263.0614,"arg_perigee_deg":88.1218,"mean_anomaly_deg":271.9912,"bstar":1.5269e-5,"rev_number":12129,"period_min":93.848424512796,"perigee_km":461.9715001347,"apogee_km":463.49975107926,"semimajor_km":6840.872625607,"source":"CELESTRAK","updated_at":"2026-05-25T13:38:18.914738Z"}}}